| time (UTC) | temp F | wind direction | speed knots | gust knots | rain 1hr in | rain 24hr in | rain mn in | humidity % | barometer mb |
| 20260901211514 | 50 | 153 | 0.9 | 2.6 | 0.00 | 0.00 | 0.00 | 84 | 1015.3 |
| 20260901211019 | 50 | 153 | 0.9 | 2.6 | 0.00 | 0.00 | 0.00 | 84 | 1015.3 |
| 20260901210511 | 50 | 153 | 0.0 | 2.6 | 0.00 | 0.00 | 0.00 | 84 | 1015.3 |
| 20260901210033 | 50 | 189 | 1.7 | 2.6 | 0.00 | 0.00 | 0.00 | 84 | 1015.3 |
| 20260901205518 | 50 | 197 | 0.0 | 2.6 | 0.00 | 0.00 | 0.00 | 83 | 1015.2 |
| 20260901205009 | 50 | 197 | 0.0 | 4.3 | 0.00 | 0.00 | 0.00 | 83 | 1015.3 |
| 20260901204512 | 50 | 197 | 1.7 | 4.3 | 0.00 | 0.00 | 0.00 | 83 | 1015.1 |
| 20260901204012 | 50 | 185 | 3.5 | 4.3 | 0.00 | 0.00 | 0.00 | 83 | 1015.0 |
| 20260901203510 | 50 | 191 | 2.6 | 4.3 | 0.00 | 0.00 | 0.00 | 83 | 1014.9 |
| 20260901203042 | 50 | 200 | 1.7 | 4.3 | 0.00 | 0.00 | 0.00 | 83 | 1015.1 |
| 20260901202511 | 50 | 202 | 2.6 | 4.3 | 0.00 | 0.00 | 0.00 | 83 | 1015.1 |
| 20260901202017 | 50 | 185 | 2.6 | 4.3 | 0.00 | 0.00 | 0.00 | 83 | 1015.0 |
| 20260901201525 | 50 | 197 | 1.7 | 4.3 | 0.00 | 0.00 | 0.00 | 83 | 1014.8 |
| 20260901201015 | 51 | 236 | 1.7 | 7.0 | 0.00 | 0.00 | 0.00 | 83 | 1014.7 |
| 20260901200515 | 51 | 206 | 3.5 | 7.0 | 0.00 | 0.00 | 0.00 | 83 | 1014.7 |
| 20260901200031 | 51 | 206 | 3.5 | 7.0 | 0.00 | 0.00 | 0.00 | 83 | 1014.7 |
| 20260901195514 | 51 | 164 | 2.6 | 8.7 | 0.00 | 0.00 | 0.00 | 83 | 1014.7 |
| 20260901195020 | 51 | 191 | 4.3 | 9.6 | 0.00 | 0.00 | 0.00 | 83 | 1014.6 |
| 20260901194523 | 51 | 167 | 4.3 | 9.6 | 0.00 | 0.00 | 0.00 | 83 | 1014.6 |
| 20260901194020 | 51 | 185 | 4.3 | 9.6 | 0.00 | 0.00 | 0.00 | 82 | 1014.6 |
| 20260901193508 | 52 | 180 | 6.1 | 10.4 | 0.00 | 0.00 | 0.00 | 82 | 1014.5 |
| 20260901193019 | 52 | 204 | 7.8 | 11.3 | 0.00 | 0.00 | 0.00 | 81 | 1014.3 |
| 20260901192512 | 53 | 149 | 7.0 | 11.3 | 0.00 | 0.00 | 0.00 | 80 | 1014.2 |
| 20260901192013 | 54 | 214 | 7.0 | 10.4 | 0.00 | 0.00 | 0.00 | 80 | 1014.1 |
| 20260901191525 | 54 | 199 | 6.1 | 9.6 | 0.00 | 0.00 | 0.00 | 79 | 1014.1 |
| 20260901191017 | 55 | 240 | 3.5 | 7.0 | 0.00 | 0.00 | 0.00 | 78 | 1013.9 |
| 20260901190514 | 55 | 8 | 2.6 | 9.6 | 0.00 | 0.00 | 0.00 | 78 | 1013.8 |
| 20260901190029 | 55 | 29 | 4.3 | 9.6 | 0.00 | 0.00 | 0.00 | 78 | 1013.7 |
| 20260901185517 | 54 | 14 | 4.3 | 9.6 | 0.00 | 0.00 | 0.00 | 78 | 1013.7 |
| 20260901185009 | 54 | 4 | 2.6 | 9.6 | 0.00 | 0.00 | 0.00 | 78 | 1013.7 |
| 20260901184532 | 54 | 349 | 2.6 | 7.0 | 0.00 | 0.00 | 0.00 | 78 | 1013.8 |
| 20260901184017 | 55 | 26 | 1.7 | 7.8 | 0.00 | 0.00 | 0.00 | 78 | 1013.7 |
| 20260901183517 | 55 | 3 | 5.2 | 7.8 | 0.00 | 0.00 | 0.00 | 78 | 1013.7 |
| 20260901183040 | 55 | 14 | 3.5 | 7.8 | 0.00 | 0.00 | 0.00 | 78 | 1013.6 |
| 20260901182512 | 55 | 8 | 4.3 | 7.8 | 0.00 | 0.00 | 0.00 | 78 | 1013.6 |
| 20260901182019 | 55 | 356 | 4.3 | 8.7 | 0.00 | 0.00 | 0.00 | 78 | 1013.6 |
| 20260901181523 | 55 | 314 | 4.3 | 8.7 | 0.00 | 0.00 | 0.00 | 78 | 1013.6 |
| 20260901181012 | 55 | 346 | 5.2 | 9.6 | 0.00 | 0.00 | 0.00 | 77 | 1013.5 |
| 20260901180516 | 55 | 332 | 6.1 | 9.6 | 0.00 | 0.00 | 0.00 | 77 | 1013.4 |
| 20260901180025 | 55 | 341 | 6.1 | 9.6 | 0.00 | 0.00 | 0.00 | 77 | 1013.4 |
| 20260901175516 | 55 | 326 | 5.2 | 9.6 | 0.00 | 0.00 | 0.00 | 77 | 1013.6 |
| 20260901175016 | 55 | 326 | 6.1 | 12.2 | 0.00 | 0.00 | 0.00 | 77 | 1013.6 |
| 20260901174526 | 55 | 346 | 7.0 | 12.2 | 0.00 | 0.00 | 0.00 | 76 | 1013.5 |
| 20260901174018 | 55 | 358 | 6.1 | 10.4 | 0.00 | 0.00 | 0.00 | 76 | 1013.5 |
| 20260901173521 | 55 | 343 | 5.2 | 9.6 | 0.00 | 0.00 | 0.00 | 76 | 1013.7 |
| 20260901173047 | 55 | 318 | 4.3 | 8.7 | 0.00 | 0.00 | 0.00 | 76 | 1013.8 |
| 20260901172508 | 55 | 333 | 4.3 | 7.8 | 0.00 | 0.00 | 0.00 | 76 | 1013.7 |
| 20260901172003 | 55 | 333 | 5.2 | 7.8 | 0.00 | 0.00 | 0.00 | 75 | 1013.6 |
| 20260901171517 | 55 | 324 | 4.3 | 7.8 | 0.00 | 0.00 | 0.00 | 75 | 1013.7 |
| 20260901171003 | 55 | 358 | 5.2 | 9.6 | 0.00 | 0.00 | 0.00 | 75 | 1013.6 |
| 20260901170503 | 55 | 345 | 6.1 | 9.6 | 0.00 | 0.00 | 0.00 | 75 | 1013.6 |
| 20260901170005 | 55 | 12 | 5.2 | 10.4 | 0.00 | 0.00 | 0.00 | 75 | 1013.7 |
| 20260901165504 | 55 | 29 | 6.1 | 10.4 | 0.00 | 0.00 | 0.00 | 76 | 1013.6 |
| 20260901165002 | 55 | 16 | 5.2 | 8.7 | 0.00 | 0.00 | 0.00 | 76 | 1013.7 |
| 20260901164505 | 55 | 342 | 5.2 | 8.7 | 0.00 | 0.00 | 0.00 | 75 | 1013.9 |
| 20260901164003 | 55 | 318 | 3.5 | 8.7 | 0.00 | 0.00 | 0.00 | 75 | 1013.9 |
| 20260901163506 | 55 | 320 | 5.2 | 8.7 | 0.00 | 0.00 | 0.00 | 76 | 1013.9 |
| 20260901163010 | 55 | 342 | 6.1 | 8.7 | 0.00 | 0.00 | 0.00 | 75 | 1014.0 |
| 20260901162504 | 54 | 314 | 4.3 | 7.8 | 0.00 | 0.00 | 0.00 | 76 | 1013.9 |
| 20260901162008 | 54 | 324 | 3.5 | 11.3 | 0.00 | 0.00 | 0.00 | 75 | 1013.8 |
| 20260901161507 | 54 | 343 | 6.1 | 11.3 | 0.00 | 0.00 | 0.00 | 75 | 1013.8 |
| 20260901161010 | 54 | 1 | 7.0 | 10.4 | 0.00 | 0.00 | 0.00 | 74 | 1013.8 |
| 20260901160508 | 55 | 358 | 7.0 | 12.2 | 0.00 | 0.00 | 0.00 | 74 | 1013.9 |
| 20260901160006 | 55 | 340 | 7.0 | 13.0 | 0.00 | 0.00 | 0.00 | 73 | 1013.9 |
| 20260901155509 | 55 | 331 | 8.7 | 15.6 | 0.00 | 0.00 | 0.00 | 73 | 1013.9 |
| 20260901155005 | 55 | 313 | 8.7 | 15.6 | 0.00 | 0.00 | 0.00 | 73 | 1014.0 |
| 20260901154504 | 56 | 341 | 9.6 | 22.6 | 0.00 | 0.00 | 0.00 | 72 | 1014.0 |
| 20260901154004 | 56 | 342 | 9.6 | 22.6 | 0.00 | 0.00 | 0.00 | 71 | 1013.9 |
| 20260901153505 | 56 | 342 | 12.2 | 15.6 | 0.00 | 0.00 | 0.00 | 72 | 1013.9 |
| 20260901153007 | 56 | 336 | 9.6 | 15.6 | 0.00 | 0.00 | 0.00 | 71 | 1014.0 |
| 20260901152512 | 56 | 354 | 10.4 | 15.6 | 0.00 | 0.00 | 0.00 | 71 | 1013.9 |
| 20260901152004 | 56 | 330 | 9.6 | 15.6 | 0.00 | 0.00 | 0.00 | 71 | 1013.9 |
| 20260901151512 | 56 | 335 | 9.6 | 15.6 | 0.00 | 0.00 | 0.00 | 70 | 1013.9 |
| 20260901151020 | 57 | 331 | 9.6 | 19.1 | 0.00 | 0.00 | 0.00 | 70 | 1013.8 |
| 20260901150503 | 57 | 341 | 10.4 | 19.1 | 0.00 | 0.00 | 0.00 | 70 | 1013.8 |
| 20260901150014 | 57 | 345 | 10.4 | 18.2 | 0.00 | 0.00 | 0.00 | 69 | 1014.0 |
| 20260901145504 | 57 | 352 | 10.4 | 18.2 | 0.00 | 0.00 | 0.00 | 69 | 1014.0 |
| 20260901145012 | 57 | 346 | 12.2 | 19.1 | 0.00 | 0.00 | 0.00 | 69 | 1013.9 |
| 20260901144523 | 57 | 341 | 12.2 | 19.1 | 0.00 | 0.00 | 0.00 | 69 | 1013.9 |
| 20260901144004 | 57 | 351 | 10.4 | 18.2 | 0.00 | 0.00 | 0.00 | 70 | 1014.0 |
| 20260901143513 | 57 | 348 | 10.4 | 18.2 | 0.00 | 0.00 | 0.00 | 70 | 1014.0 |
| 20260901143005 | 57 | 329 | 9.6 | 16.5 | 0.00 | 0.00 | 0.00 | 70 | 1014.0 |
| 20260901142504 | 57 | 336 | 10.4 | 17.4 | 0.00 | 0.00 | 0.00 | 71 | 1014.0 |
| 20260901142006 | 57 | 22 | 10.4 | 17.4 | 0.00 | 0.00 | 0.00 | 71 | 1013.9 |
| 20260901141508 | 57 | 351 | 10.4 | 16.5 | 0.00 | 0.00 | 0.00 | 71 | 1013.9 |
| 20260901141008 | 57 | 349 | 10.4 | 17.4 | 0.00 | 0.00 | 0.00 | 70 | 1014.0 |
| 20260901140506 | 57 | 14 | 10.4 | 17.4 | 0.00 | 0.00 | 0.00 | 70 | 1014.0 |
| 20260901140005 | 57 | 16 | 9.6 | 15.6 | 0.00 | 0.00 | 0.00 | 70 | 1013.9 |
| 20260901135508 | 57 | 345 | 10.4 | 15.6 | 0.00 | 0.00 | 0.00 | 70 | 1014.0 |
| 20260901135008 | 57 | 327 | 9.6 | 16.5 | 0.00 | 0.00 | 0.00 | 71 | 1014.1 |
| 20260901134523 | 57 | 341 | 9.6 | 16.5 | 0.00 | 0.00 | 0.00 | 71 | 1014.3 |
| 20260901134019 | 57 | 1 | 7.8 | 14.8 | 0.00 | 0.00 | 0.00 | 71 | 1014.3 |
| 20260901133507 | 57 | 353 | 7.8 | 13.0 | 0.00 | 0.00 | 0.00 | 71 | 1014.2 |
| 20260901133028 | 57 | 337 | 7.0 | 11.3 | 0.00 | 0.00 | 0.00 | 71 | 1014.2 |
| 20260901132510 | 57 | 8 | 7.0 | 11.3 | 0.00 | 0.00 | 0.00 | 71 | 1014.3 |
| 20260901132004 | 57 | 21 | 7.0 | 11.3 | 0.00 | 0.00 | 0.00 | 70 | 1014.3 |
| 20260901131506 | 57 | 19 | 5.2 | 13.9 | 0.00 | 0.00 | 0.00 | 69 | 1014.4 |
| 20260901131006 | 57 | 327 | 7.8 | 13.9 | 0.00 | 0.00 | 0.00 | 68 | 1014.6 |
| 20260901130506 | 57 | 322 | 8.7 | 13.9 | 0.00 | 0.00 | 0.00 | 68 | 1014.4 |
| 20260901130018 | 57 | 3 | 8.7 | 13.9 | 0.00 | 0.00 | 0.00 | 68 | 1014.5 |
| 20260901125506 | 57 | 316 | 7.8 | 13.9 | 0.00 | 0.00 | 0.00 | 69 | 1014.5 |
| 20260901125008 | 57 | 335 | 7.8 | 16.5 | 0.00 | 0.00 | 0.00 | 69 | 1014.4 |
| 20260901124515 | 57 | 348 | 11.3 | 18.2 | 0.00 | 0.00 | 0.00 | 69 | 1014.4 |
| 20260901124010 | 57 | 342 | 11.3 | 18.2 | 0.00 | 0.00 | 0.00 | 68 | 1014.5 |
| 20260901123515 | 57 | 350 | 10.4 | 15.6 | 0.00 | 0.00 | 0.00 | 69 | 1014.4 |
| 20260901123019 | 57 | 352 | 10.4 | 16.5 | 0.00 | 0.00 | 0.00 | 69 | 1014.4 |
| 20260901122517 | 57 | 339 | 11.3 | 20.0 | 0.00 | 0.00 | 0.00 | 69 | 1014.5 |
| 20260901122012 | 57 | 12 | 11.3 | 20.0 | 0.00 | 0.00 | 0.00 | 69 | 1014.5 |
| 20260901121511 | 57 | 342 | 11.3 | 19.1 | 0.00 | 0.00 | 0.00 | 69 | 1014.6 |
| 20260901121015 | 58 | 349 | 11.3 | 20.0 | 0.00 | 0.00 | 0.00 | 68 | 1014.6 |
| 20260901120510 | 58 | 339 | 12.2 | 20.9 | 0.00 | 0.00 | 0.00 | 68 | 1014.6 |
| 20260901120048 | 58 | 337 | 13.0 | 20.9 | 0.00 | 0.00 | 0.00 | 68 | 1014.7 |
| 20260901115507 | 58 | 323 | 13.0 | 20.9 | 0.00 | 0.00 | 0.00 | 68 | 1014.9 |
| 20260901115014 | 58 | 325 | 13.0 | 20.0 | 0.00 | 0.00 | 0.00 | 68 | 1014.9 |
| 20260901114512 | 58 | 318 | 12.2 | 19.1 | 0.00 | 0.00 | 0.00 | 67 | 1015.0 |
| 20260901114007 | 59 | 322 | 12.2 | 22.6 | 0.00 | 0.00 | 0.00 | 67 | 1015.0 |
| 20260901113508 | 59 | 328 | 13.0 | 22.6 | 0.00 | 0.00 | 0.00 | 67 | 1015.2 |
| 20260901113018 | 59 | 352 | 11.3 | 20.0 | 0.00 | 0.00 | 0.00 | 67 | 1015.2 |
| 20260901112511 | 59 | 343 | 12.2 | 18.2 | 0.00 | 0.00 | 0.00 | 66 | 1015.1 |
| 20260901112011 | 58 | 339 | 10.4 | 17.4 | 0.00 | 0.00 | 0.00 | 67 | 1015.0 |
| 20260901111521 | 58 | 342 | 11.3 | 16.5 | 0.00 | 0.00 | 0.00 | 66 | 1014.8 |
| 20260901111008 | 59 | 332 | 9.6 | 20.0 | 0.00 | 0.00 | 0.00 | 66 | 1014.7 |
| 20260901110517 | 59 | 332 | 11.3 | 20.0 | 0.00 | 0.00 | 0.00 | 65 | 1014.6 |
| 20260901110019 | 59 | 347 | 10.4 | 16.5 | 0.00 | 0.00 | 0.00 | 65 | 1014.6 |
| 20260901105518 | 59 | 338 | 10.4 | 16.5 | 0.00 | 0.00 | 0.00 | 65 | 1014.6 |
| 20260901105017 | 59 | 350 | 10.4 | 18.2 | 0.00 | 0.00 | 0.00 | 64 | 1014.5 |
| 20260901104516 | 60 | 10 | 10.4 | 18.2 | 0.00 | 0.00 | 0.00 | 64 | 1014.4 |
| 20260901104022 | 60 | 341 | 10.4 | 18.2 | 0.00 | 0.00 | 0.00 | 64 | 1014.4 |
| 20260901103511 | 60 | 349 | 8.7 | 18.2 | 0.00 | 0.00 | 0.00 | 64 | 1014.5 |
| 20260901103018 | 60 | 343 | 13.0 | 18.2 | 0.00 | 0.00 | 0.00 | 63 | 1014.5 |
| 20260901102512 | 60 | 336 | 12.2 | 18.2 | 0.00 | 0.00 | 0.00 | 63 | 1014.3 |
| 20260901102013 | 60 | 336 | 11.3 | 18.2 | 0.00 | 0.00 | 0.00 | 63 | 1014.2 |
| 20260901101523 | 60 | 343 | 12.2 | 21.7 | 0.00 | 0.00 | 0.00 | 63 | 1014.3 |
| 20260901101013 | 60 | 14 | 12.2 | 21.7 | 0.00 | 0.00 | 0.00 | 62 | 1014.4 |
| 20260901100513 | 60 | 352 | 13.0 | 20.0 | 0.00 | 0.00 | 0.00 | 62 | 1014.5 |
| 20260901100026 | 61 | 345 | 12.2 | 20.9 | 0.00 | 0.00 | 0.00 | 61 | 1014.5 |
| 20260901095514 | 61 | 2 | 13.9 | 20.9 | 0.00 | 0.00 | 0.00 | 61 | 1014.3 |
| 20260901095010 | 61 | 335 | 12.2 | 23.5 | 0.00 | 0.00 | 0.00 | 61 | 1014.2 |
| 20260901094533 | 61 | 10 | 13.0 | 23.5 | 0.00 | 0.00 | 0.00 | 61 | 1014.2 |
| 20260901094013 | 61 | 18 | 10.4 | 21.7 | 0.00 | 0.00 | 0.00 | 61 | 1014.3 |
| 20260901093519 | 61 | 358 | 11.3 | 20.0 | 0.00 | 0.00 | 0.00 | 61 | 1014.4 |
| 20260901093027 | 61 | 62 | 9.6 | 18.2 | 0.00 | 0.00 | 0.00 | 62 | 1014.3 |
| 20260901092512 | 61 | 345 | 9.6 | 18.2 | 0.00 | 0.00 | 0.00 | 62 | 1014.3 |
| 20260901092011 | 61 | 349 | 9.6 | 17.4 | 0.00 | 0.00 | 0.00 | 62 | 1014.4 |
| 20260901091519 | 61 | 350 | 10.4 | 17.4 | 0.00 | 0.00 | 0.00 | 62 | 1014.5 |
| 20260901091009 | 61 | 32 | 7.8 | 15.6 | 0.00 | 0.00 | 0.00 | 62 | 1014.7 |
| 20260901090512 | 61 | 337 | 8.7 | 15.6 | 0.00 | 0.00 | 0.00 | 62 | 1014.8 |
| 20260901090023 | 61 | 23 | 7.0 | 14.8 | 0.00 | 0.00 | 0.00 | 63 | 1014.8 |
| 20260901085515 | 60 | 17 | 5.2 | 14.8 | 0.00 | 0.00 | 0.00 | 63 | 1014.8 |
| 20260901085014 | 60 | 341 | 5.2 | 13.9 | 0.00 | 0.00 | 0.00 | 63 | 1014.9 |
| 20260901084517 | 60 | 25 | 4.3 | 13.9 | 0.00 | 0.00 | 0.00 | 63 | 1014.9 |
| 20260901084014 | 60 | 355 | 5.2 | 17.4 | 0.00 | 0.00 | 0.00 | 63 | 1014.9 |
| 20260901083512 | 60 | 10 | 4.3 | 17.4 | 0.00 | 0.00 | 0.00 | 63 | 1014.9 |
| 20260901083035 | 60 | 21 | 5.2 | 13.0 | 0.00 | 0.00 | 0.00 | 63 | 1015.0 |
| 20260901082504 | 61 | 15 | 6.1 | 13.0 | 0.00 | 0.00 | 0.00 | 62 | 1015.2 |
| 20260901082010 | 61 | 347 | 7.8 | 13.0 | 0.00 | 0.00 | 0.00 | 62 | 1015.1 |
| 20260901081513 | 61 | 9 | 6.1 | 15.6 | 0.00 | 0.00 | 0.00 | 62 | 1015.1 |
| 20260901081004 | 61 | 16 | 6.1 | 15.6 | 0.00 | 0.00 | 0.00 | 62 | 1015.3 |
| 20260901080512 | 61 | 339 | 7.0 | 13.0 | 0.00 | 0.00 | 0.00 | 62 | 1015.4 |
| 20260901080009 | 61 | 360 | 7.8 | 13.0 | 0.00 | 0.00 | 0.00 | 61 | 1015.5 |
| 20260901075512 | 61 | 343 | 7.0 | 13.0 | 0.00 | 0.00 | 0.00 | 62 | 1015.5 |
| 20260901075009 | 61 | 355 | 7.0 | 15.6 | 0.00 | 0.00 | 0.00 | 61 | 1015.6 |
| 20260901074507 | 61 | 10 | 8.7 | 15.6 | 0.00 | 0.00 | 0.00 | 61 | 1015.6 |
| 20260901074004 | 61 | 10 | 7.8 | 13.0 | 0.00 | 0.00 | 0.00 | 62 | 1015.3 |
| 20260901073504 | 61 | 337 | 7.8 | 14.8 | 0.00 | 0.00 | 0.00 | 62 | 1015.3 |
| 20260901073006 | 61 | 341 | 9.6 | 17.4 | 0.00 | 0.00 | 0.00 | 61 | 1015.6 |
| 20260901072507 | 61 | 349 | 8.7 | 17.4 | 0.00 | 0.00 | 0.00 | 61 | 1015.4 |
| 20260901072006 | 61 | 341 | 8.7 | 14.8 | 0.00 | 0.00 | 0.00 | 61 | 1015.3 |
| 20260901071521 | 61 | 337 | 9.6 | 19.1 | 0.00 | 0.00 | 0.00 | 61 | 1015.4 |
| 20260901071008 | 61 | 329 | 9.6 | 19.1 | 0.00 | 0.00 | 0.00 | 61 | 1015.3 |
| 20260901070504 | 61 | 348 | 9.6 | 14.8 | 0.00 | 0.00 | 0.00 | 60 | 1015.2 |
| 20260901070023 | 62 | 343 | 11.3 | 19.1 | 0.00 | 0.00 | 0.00 | 59 | 1015.4 |
| 20260901065510 | 62 | 325 | 11.3 | 19.1 | 0.00 | 0.00 | 0.00 | 59 | 1015.3 |
| 20260901065004 | 62 | 333 | 10.4 | 19.1 | 0.00 | 0.00 | 0.00 | 58 | 1015.2 |
| 20260901064526 | 62 | 316 | 11.3 | 24.3 | 0.00 | 0.00 | 0.00 | 57 | 1015.1 |
| 20260901064007 | 62 | 344 | 13.0 | 24.3 | 0.00 | 0.00 | 0.00 | 57 | 1015.0 |
| 20260901063514 | 62 | 337 | 12.2 | 20.9 | 0.00 | 0.00 | 0.00 | 57 | 1015.0 |
| 20260901063015 | 62 | 352 | 11.3 | 25.2 | 0.00 | 0.00 | 0.00 | 57 | 1015.2 |
| 20260901062504 | 62 | 7 | 14.8 | 25.2 | 0.00 | 0.00 | 0.00 | 56 | 1015.2 |
| 20260901062011 | 63 | 345 | 13.0 | 23.5 | 0.00 | 0.00 | 0.00 | 56 | 1015.1 |
| 20260901061509 | 63 | 4 | 11.3 | 23.5 | 0.00 | 0.00 | 0.00 | 56 | 1014.8 |
| 20260901061008 | 63 | 339 | 11.3 | 23.5 | 0.00 | 0.00 | 0.00 | 57 | 1014.8 |
| 20260901060509 | 62 | 10 | 10.4 | 20.0 | 0.00 | 0.00 | 0.00 | 58 | 1014.8 |
| 20260901060012 | 62 | 24 | 8.7 | 22.6 | 0.00 | 0.00 | 0.00 | 59 | 1015.0 |
| 20260901055511 | 63 | 340 | 13.9 | 26.1 | 0.00 | 0.00 | 0.00 | 57 | 1014.9 |
| 20260901055014 | 63 | 339 | 13.0 | 26.9 | 0.00 | 0.00 | 0.00 | 57 | 1015.0 |
| 20260901054513 | 63 | 346 | 15.6 | 26.9 | 0.00 | 0.00 | 0.00 | 56 | 1015.1 |
| 20260901054013 | 63 | 23 | 13.9 | 24.3 | 0.00 | 0.00 | 0.00 | 57 | 1015.1 |
| 20260901053510 | 63 | 340 | 13.9 | 26.9 | 0.00 | 0.00 | 0.00 | 56 | 1015.1 |
| 20260901053037 | 64 | 1 | 15.6 | 27.8 | 0.00 | 0.00 | 0.00 | 56 | 1015.2 |
| 20260901052502 | 65 | 349 | 14.8 | 27.8 | 0.00 | 0.00 | 0.00 | 57 | 1015.2 |
| 20260901052007 | 64 | 341 | 13.9 | 24.3 | 0.00 | 0.00 | 0.00 | 57 | 1015.2 |
| 20260901051504 | 64 | 341 | 13.9 | 25.2 | 0.00 | 0.00 | 0.00 | 58 | 1015.2 |
| 20260901051003 | 64 | 328 | 13.0 | 26.9 | 0.00 | 0.00 | 0.00 | 55 | 1015.2 |
| 20260901050507 | 64 | 352 | 18.2 | 27.8 | 0.00 | 0.00 | 0.00 | 54 | 1015.3 |
| 20260901050004 | 64 | 333 | 17.4 | 31.3 | 0.00 | 0.00 | 0.00 | 55 | 1015.6 |
| 20260901045508 | 64 | 345 | 19.1 | 32.2 | 0.00 | 0.00 | 0.00 | 54 | 1015.4 |
| 20260901045004 | 64 | 348 | 18.2 | 32.2 | 0.00 | 0.00 | 0.00 | 55 | 1015.3 |
| 20260901044516 | 64 | 1 | 20.0 | 29.5 | 0.00 | 0.00 | 0.00 | 54 | 1015.2 |
| 20260901044008 | 65 | 330 | 18.2 | 28.7 | 0.00 | 0.00 | 0.00 | 56 | 1015.3 |
| 20260901043506 | 65 | 356 | 20.0 | 26.9 | 0.00 | 0.00 | 0.00 | 56 | 1015.2 |
| 20260901043017 | 65 | 352 | 16.5 | 28.7 | 0.00 | 0.00 | 0.00 | 57 | 1015.3 |
| 20260901042508 | 65 | 358 | 17.4 | 28.7 | 0.00 | 0.00 | 0.00 | 57 | 1015.2 |
| 20260901042004 | 65 | 349 | 14.8 | 28.7 | 0.00 | 0.00 | 0.00 | 59 | 1015.1 |
| 20260901041504 | 64 | 320 | 18.2 | 30.4 | 0.00 | 0.00 | 0.00 | 57 | 1015.1 |
| 20260901041003 | 64 | 337 | 20.0 | 32.2 | 0.00 | 0.00 | 0.00 | 57 | 1015.1 |
| 20260901040503 | 64 | 358 | 20.9 | 32.2 | 0.00 | 0.00 | 0.00 | 58 | 1015.4 |
| 20260901040006 | 64 | 330 | 17.4 | 33.0 | 0.00 | 0.00 | 0.00 | 58 | 1015.2 |
| 20260901035501 | 64 | 14 | 18.2 | 33.0 | 0.00 | 0.00 | 0.00 | 58 | 1015.1 |
| 20260901035008 | 64 | 7 | 20.0 | 33.0 | 0.00 | 0.00 | 0.00 | 58 | 1015.1 |
| 20260901034514 | 64 | 324 | 19.1 | 32.2 | 0.00 | 0.00 | 0.00 | 58 | 1015.3 |
| 20260901034010 | 64 | 339 | 20.9 | 32.2 | 0.00 | 0.00 | 0.00 | 57 | 1015.5 |
| 20260901033510 | 64 | 331 | 17.4 | 31.3 | 0.00 | 0.00 | 0.00 | 58 | 1015.5 |
| 20260901033008 | 64 | 341 | 19.1 | 30.4 | 0.00 | 0.00 | 0.00 | 58 | 1015.8 |
| 20260901032512 | 64 | 318 | 18.2 | 28.7 | 0.00 | 0.00 | 0.00 | 58 | 1015.9 |
| 20260901032009 | 64 | 332 | 14.8 | 39.1 | 0.00 | 0.00 | 0.00 | 60 | 1016.0 |
| 20260901031507 | 63 | 351 | 17.4 | 39.1 | 0.00 | 0.00 | 0.00 | 60 | 1016.2 |
| 20260901031011 | 63 | 318 | 23.5 | 38.2 | 0.00 | 0.00 | 0.00 | 59 | 1016.2 |
| 20260901030503 | 63 | 2 | 14.8 | 36.5 | 0.00 | 0.00 | 0.00 | 61 | 1016.7 |
| 20260901030005 | 63 | 341 | 17.4 | 36.5 | 0.00 | 0.00 | 0.00 | 59 | 1016.8 |
| 20260901025505 | 63 | 318 | 20.9 | 39.1 | 0.00 | 0.00 | 0.00 | 60 | 1016.7 |
| 20260901025010 | 62 | 20 | 17.4 | 39.1 | 0.00 | 0.00 | 0.00 | 61 | 1017.1 |
| 20260901024513 | 63 | 345 | 18.2 | 32.2 | 0.00 | 0.00 | 0.00 | 59 | 1017.2 |
| 20260901024011 | 63 | 348 | 20.0 | 32.2 | 0.00 | 0.00 | 0.00 | 60 | 1017.1 |
| 20260901023510 | 63 | 3 | 17.4 | 33.0 | 0.00 | 0.00 | 0.00 | 61 | 1017.3 |
| 20260901023024 | 62 | 341 | 15.6 | 33.0 | 0.00 | 0.00 | 0.00 | 62 | 1017.3 |
| 20260901022506 | 62 | 10 | 18.2 | 32.2 | 0.00 | 0.00 | 0.00 | 62 | 1017.3 |
| 20260901022011 | 62 | 4 | 15.6 | 26.9 | 0.00 | 0.00 | 0.00 | 63 | 1017.2 |
| 20260901021523 | 62 | 23 | 15.6 | 27.8 | 0.00 | 0.00 | 0.00 | 61 | 1017.3 |
| 20260901021006 | 62 | 345 | 16.5 | 29.5 | 0.00 | 0.00 | 0.00 | 62 | 1017.4 |
| 20260901020517 | 62 | 15 | 17.4 | 29.5 | 0.00 | 0.00 | 0.00 | 60 | 1017.6 |
| 20260901020016 | 61 | 21 | 14.8 | 26.1 | 0.00 | 0.00 | 0.00 | 63 | 1018.0 |
| 20260901015517 | 61 | 6 | 13.0 | 26.1 | 0.00 | 0.00 | 0.00 | 64 | 1018.2 |
| 20260901015014 | 61 | 12 | 15.6 | 26.9 | 0.00 | 0.00 | 0.00 | 63 | 1018.3 |
| 20260901014508 | 60 | 358 | 14.8 | 29.5 | 0.00 | 0.00 | 0.00 | 64 | 1018.6 |
| 20260901014008 | 60 | 359 | 15.6 | 30.4 | 0.00 | 0.00 | 0.00 | 63 | 1018.4 |
| 20260901013505 | 60 | 11 | 20.9 | 30.4 | 0.00 | 0.00 | 0.00 | 64 | 1018.5 |
| 20260901013007 | 60 | 11 | 13.9 | 29.5 | 0.00 | 0.00 | 0.00 | 66 | 1018.6 |
| 20260901012510 | 60 | 358 | 15.6 | 29.5 | 0.00 | 0.00 | 0.00 | 65 | 1018.6 |
| 20260901012010 | 59 | 353 | 18.2 | 29.5 | 0.00 | 0.00 | 0.00 | 65 | 1018.9 |
| 20260901011523 | 59 | 349 | 11.3 | 24.3 | 0.00 | 0.00 | 0.00 | 68 | 1019.1 |
| 20260901011015 | 59 | 354 | 13.9 | 26.9 | 0.00 | 0.00 | 0.00 | 67 | 1019.1 |
| 20260901010510 | 59 | 3 | 16.5 | 26.9 | 0.00 | 0.00 | 0.00 | 68 | 1019.1 |
| 20260901010025 | 59 | 350 | 13.9 | 24.3 | 0.00 | 0.00 | 0.00 | 69 | 1019.3 |
| 20260901005512 | 58 | 22 | 13.0 | 22.6 | 0.00 | 0.00 | 0.00 | 68 | 1019.3 |
| 20260901005018 | 58 | 25 | 12.2 | 31.3 | 0.00 | 0.00 | 0.00 | 70 | 1019.5 |
| 20260901004532 | 58 | 359 | 15.6 | 31.3 | 0.00 | 0.00 | 0.00 | 69 | 1019.6 |
| 20260901004011 | 58 | 333 | 13.0 | 26.1 | 0.00 | 0.00 | 0.00 | 71 | 1019.8 |
| 20260901003516 | 58 | 9 | 13.0 | 26.1 | 0.00 | 0.00 | 0.00 | 72 | 1019.6 |
| 20260901003024 | 57 | 332 | 13.0 | 22.6 | 0.00 | 0.00 | 0.00 | 73 | 1019.7 |
| 20260901002506 | 57 | 10 | 11.3 | 24.3 | 0.00 | 0.00 | 0.00 | 74 | 1020.0 |
| 20260901002012 | 56 | 13 | 14.8 | 24.3 | 0.00 | 0.00 | 0.00 | 73 | 1020.3 |
| 20260901001517 | 56 | 359 | 13.0 | 24.3 | 0.00 | 0.00 | 0.00 | 74 | 1020.3 |
| 20260901001014 | 56 | 16 | 10.4 | 22.6 | 0.00 | 0.00 | 0.00 | 75 | 1020.5 |
| 20260901000515 | 56 | 16 | 11.3 | 22.6 | 0.00 | 0.00 | 0.00 | 75 | 1020.6 |
| 20260901000014 | 56 | 7 | 11.3 | 20.9 | 0.00 | 0.00 | 0.00 | 75 | 1020.7 |
| 20260831235515 | 56 | 15 | 10.4 | 20.9 | 0.00 | 0.00 | 0.00 | 76 | 1020.8 |
| 20260831235013 | 56 | 20 | 7.0 | 21.7 | 0.00 | 0.00 | 0.00 | 77 | 1020.9 |
| 20260831234514 | 55 | 13 | 7.8 | 25.2 | 0.00 | 0.00 | 0.00 | 77 | 1021.1 |
| 20260831234017 | 55 | 353 | 9.6 | 26.9 | 0.00 | 0.00 | 0.00 | 78 | 1021.3 |
| 20260831233512 | 54 | 7 | 11.3 | 26.9 | 0.00 | 0.00 | 0.00 | 78 | 1021.4 |
| 20260831233030 | 54 | 18 | 14.8 | 26.1 | 0.00 | 0.00 | 0.00 | 78 | 1021.5 |
| 20260831232515 | 54 | 28 | 10.4 | 22.6 | 0.00 | 0.00 | 0.00 | 79 | 1021.5 |
| 20260831232015 | 54 | 4 | 13.9 | 26.9 | 0.00 | 0.00 | 0.00 | 79 | 1021.6 |
| 20260831231533 | 53 | 322 | 14.8 | 26.9 | 0.00 | 0.00 | 0.00 | 79 | 1021.7 |
| 20260831231010 | 53 | 8 | 11.3 | 21.7 | 0.00 | 0.00 | 0.00 | 80 | 1021.9 |
| 20260831230511 | 53 | 350 | 13.0 | 23.5 | 0.00 | 0.00 | 0.00 | 80 | 1021.8 |
| 20260831230023 | 53 | 359 | 15.6 | 23.5 | 0.00 | 0.00 | 0.00 | 80 | 1021.9 |
| 20260831225512 | 53 | 332 | 10.4 | 25.2 | 0.00 | 0.00 | 0.00 | 81 | 1021.9 |
| 20260831225018 | 52 | 343 | 14.8 | 25.2 | 0.00 | 0.00 | 0.00 | 81 | 1021.8 |
| 20260831224528 | 52 | 355 | 11.3 | 25.2 | 0.00 | 0.00 | 0.00 | 82 | 1021.7 |
| 20260831224011 | 52 | 353 | 15.6 | 25.2 | 0.00 | 0.00 | 0.00 | 82 | 1021.8 |
| 20260831223514 | 52 | 8 | 13.0 | 26.9 | 0.00 | 0.00 | 0.00 | 82 | 1021.8 |
| 20260831223027 | 52 | 2 | 11.3 | 26.9 | 0.00 | 0.00 | 0.00 | 82 | 1022.0 |
| 20260831222516 | 51 | 359 | 15.6 | 26.9 | 0.00 | 0.00 | 0.00 | 82 | 1022.0 |
| 20260831222015 | 51 | 339 | 14.8 | 22.6 | 0.00 | 0.00 | 0.00 | 83 | 1021.9 |
| 20260831221523 | 51 | 14 | 14.8 | 23.5 | 0.00 | 0.00 | 0.00 | 83 | 1022.0 |
| 20260831221019 | 51 | 2 | 14.8 | 23.5 | 0.00 | 0.00 | 0.00 | 84 | 1021.9 |
| 20260831220514 | 51 | 8 | 12.2 | 23.5 | 0.00 | 0.00 | 0.00 | 84 | 1022.0 |
| 20260831220017 | 51 | 320 | 13.9 | 22.6 | 0.00 | 0.00 | 0.00 | 84 | 1022.2 |
| 20260831215518 | 51 | 5 | 10.4 | 22.6 | 0.00 | 0.00 | 0.00 | 85 | 1022.2 |
| 20260831215017 | 51 | 352 | 12.2 | 21.7 | 0.00 | 0.00 | 0.00 | 85 | 1022.2 |
| 20260831214524 | 50 | 341 | 13.9 | 21.7 | 0.00 | 0.00 | 0.00 | 85 | 1022.0 |
| 20260831214011 | 50 | 354 | 12.2 | 20.9 | 0.00 | 0.00 | 0.00 | 85 | 1022.0 |
| 20260831213511 | 50 | 355 | 10.4 | 21.7 | 0.00 | 0.00 | 0.00 | 85 | 1022.1 |
| 20260831213028 | 50 | 336 | 13.0 | 21.7 | 0.00 | 0.00 | 0.00 | 86 | 1022.0 |
| 20260831212517 | 50 | 1 | 12.2 | 24.3 | 0.00 | 0.00 | 0.00 | 86 | 1021.9 |
| 20260831212015 | 50 | 3 | 15.6 | 24.3 | 0.00 | 0.00 | 0.00 | 86 | 1021.9 |